AVA8452 SKBO-SKCG

Flight info

Callsign AVA8452
Flight time 1h 0m
Altitude 34000
Route DANSA4R GIKPU UQ120 YACAR/N0461F360 UQ120 DIBAM UW10 UGREB UGREB3B
Aircraft A320/M-SDE3FGHIRWY/LB1

Departure

Time 2026-04-25 02:49
Airport El Dorado International Airport (SKBO)

Arrival

Time 2026-04-25 03:50
Airport Rafael Nuñez International Airport (SKCG)
Time Latitude Longitude Altitude Speed Heading
2026-04-25 02:18 4.69721 -74.13752 8370 ft 0 kts 225°
2026-04-25 02:27 4.69722 -74.13751 8370 ft 2 kts 225°
2026-04-25 02:27 4.69740 -74.13733 8370 ft 4 kts 224°
2026-04-25 02:28 4.69758 -74.13714 8370 ft 4 kts 244°
2026-04-25 02:28 4.69762 -74.13690 8370 ft 4 kts 291°
2026-04-25 02:28 4.69750 -74.13670 8370 ft 1 kts 307°
2026-04-25 02:28 4.69761 -74.13684 8370 ft 4 kts 307°
2026-04-25 02:29 4.69777 -74.13706 8370 ft 4 kts 307°
2026-04-25 02:29 4.69789 -74.13721 8370 ft 0 kts 307°
2026-04-25 02:32 4.69809 -74.13748 8370 ft 12 kts 307°
2026-04-25 02:32 4.69876 -74.13839 8370 ft 19 kts 307°
2026-04-25 02:32 4.69963 -74.13951 8370 ft 22 kts 307°
2026-04-25 02:33 4.70035 -74.14036 8370 ft 9 kts 334°
2026-04-25 02:33 4.70092 -74.14015 8370 ft 10 kts 40°
2026-04-25 02:33 4.70149 -74.13982 8369 ft 10 kts 358°
2026-04-25 02:33 4.70202 -74.14034 8370 ft 14 kts 305°
2026-04-25 02:34 4.70274 -74.14132 8370 ft 21 kts 306°
2026-04-25 02:34 4.70375 -74.14262 8370 ft 26 kts 308°
2026-04-25 02:34 4.70495 -74.14422 8371 ft 31 kts 307°
2026-04-25 02:34 4.70633 -74.14603 8371 ft 34 kts 307°
2026-04-25 02:35 4.70781 -74.14799 8370 ft 37 kts 307°
2026-04-25 02:35 4.70934 -74.15000 8370 ft 33 kts 308°
2026-04-25 02:35 4.71051 -74.15158 8371 ft 14 kts 305°
2026-04-25 02:35 4.71056 -74.15164 8370 ft 1 kts 305°
2026-04-25 02:36 4.71073 -74.15188 8370 ft 0 kts 307°
2026-04-25 02:38 4.71076 -74.15191 8371 ft 2 kts 308°
2026-04-25 02:38 4.71078 -74.15194 8371 ft 0 kts 308°
2026-04-25 02:39 4.71079 -74.15194 8370 ft 1 kts 308°
2026-04-25 02:39 4.71113 -74.15238 8371 ft 14 kts 308°
2026-04-25 02:39 4.71185 -74.15302 8371 ft 14 kts 346°
2026-04-25 02:40 4.71234 -74.15294 8371 ft 0 kts 30°
2026-04-25 02:45 4.71237 -74.15292 8371 ft 2 kts 30°
2026-04-25 02:45 4.71268 -74.15264 8371 ft 14 kts 47°
2026-04-25 02:46 4.71311 -74.15173 8369 ft 8 kts 110°
2026-04-25 02:46 4.71306 -74.15166 8369 ft 0 kts 125°
2026-04-25 02:48 4.71305 -74.15164 8369 ft 2 kts 125°
2026-04-25 02:48 4.71239 -74.15078 8369 ft 42 kts 127°
2026-04-25 02:48 4.70912 -74.14643 8369 ft 111 kts 127°
2026-04-25 02:49 4.70327 -74.13870 8369 ft 166 kts 127°
2026-04-25 02:49 4.69532 -74.12839 8468 ft 202 kts 130°
2026-04-25 02:49 4.68712 -74.11732 9371 ft 196 kts 113°
2026-04-25 02:49 4.68615 -74.10404 9955 ft 200 kts 71°
2026-04-25 02:50 4.69512 -74.09285 10098 ft 221 kts 30°
2026-04-25 02:50 4.70982 -74.08648 10296 ft 239 kts 18°
2026-04-25 02:50 4.72610 -74.08173 10805 ft 246 kts 15°
2026-04-25 02:50 4.74268 -74.07731 11488 ft 247 kts 14°
2026-04-25 02:51 4.75933 -74.07268 12164 ft 250 kts 15°
2026-04-25 02:51 4.77608 -74.06774 12827 ft 256 kts 16°
2026-04-25 02:51 4.79383 -74.06226 13045 ft 278 kts 17°
2026-04-25 02:51 4.81305 -74.05610 13257 ft 301 kts 17°
2026-04-25 02:52 4.83370 -74.04930 13448 ft 325 kts 18°
2026-04-25 02:52 4.85590 -74.04187 13595 ft 347 kts 18°
2026-04-25 02:52 4.87923 -74.03396 14003 ft 359 kts 18°
2026-04-25 02:52 4.90305 -74.02583 14545 ft 364 kts 18°
2026-04-25 02:53 4.92717 -74.01761 15127 ft 368 kts 18°
2026-04-25 02:53 4.95152 -74.00932 15711 ft 371 kts 18°
2026-04-25 02:53 4.97610 -74.00097 16300 ft 374 kts 18°
2026-04-25 02:53 5.00101 -73.99254 16657 ft 385 kts 18°
2026-04-25 02:54 5.02699 -73.98400 16790 ft 400 kts 16°
2026-04-25 02:54 5.05424 -73.97628 16978 ft 412 kts 14°
2026-04-25 02:54 5.08220 -73.96932 17373 ft 417 kts 13°
2026-04-25 02:54 5.11050 -73.96275 17937 ft 417 kts 12°
2026-04-25 02:55 5.13873 -73.95625 18550 ft 416 kts 12°
2026-04-25 02:55 5.16689 -73.94964 19117 ft 415 kts 12°
2026-04-25 02:55 5.19491 -73.94289 19665 ft 413 kts 13°
2026-04-25 02:55 5.22274 -73.93600 20234 ft 411 kts 13°
2026-04-25 02:56 5.25048 -73.92904 20839 ft 410 kts 13°
2026-04-25 02:56 5.27812 -73.92208 21410 ft 409 kts 13°
2026-04-25 02:56 5.30565 -73.91514 22018 ft 407 kts 13°
2026-04-25 02:56 5.33299 -73.90830 22630 ft 404 kts 13°
2026-04-25 02:57 5.36022 -73.90151 23273 ft 402 kts 13°
2026-04-25 02:57 5.38729 -73.89478 23918 ft 399 kts 13°
2026-04-25 02:57 5.41416 -73.88808 24456 ft 397 kts 13°
2026-04-25 02:57 5.44049 -73.88151 24964 ft 394 kts 14°
2026-04-25 02:58 5.46733 -73.87482 25537 ft 390 kts 14°
2026-04-25 02:58 5.49352 -73.86830 26105 ft 387 kts 14°
2026-04-25 02:58 5.51953 -73.86183 26691 ft 383 kts 14°
2026-04-25 02:58 5.54531 -73.85554 27286 ft 379 kts 13°
2026-04-25 02:59 5.57063 -73.84999 27855 ft 375 kts 12°
2026-04-25 02:59 5.59606 -73.84485 28479 ft 370 kts 12°
2026-04-25 02:59 5.62142 -73.84126 29040 ft 369 kts
2026-04-25 02:59 5.64736 -73.83871 29167 ft 380 kts
2026-04-25 03:00 5.67404 -73.83638 29299 ft 390 kts
2026-04-25 03:00 5.70141 -73.83415 29456 ft 399 kts
2026-04-25 03:00 5.72941 -73.83191 29538 ft 408 kts
2026-04-25 03:00 5.75802 -73.82958 29673 ft 417 kts
2026-04-25 03:01 5.78720 -73.82715 29813 ft 425 kts
2026-04-25 03:01 5.81694 -73.82463 29945 ft 433 kts
2026-04-25 03:01 5.84721 -73.82203 30084 ft 440 kts
2026-04-25 03:02 5.90921 -73.81665 30305 ft 455 kts
2026-04-25 03:02 5.94100 -73.81387 30421 ft 461 kts
2026-04-25 03:02 5.97322 -73.81107 30533 ft 468 kts
2026-04-25 03:03 6.03887 -73.80545 30720 ft 479 kts
2026-04-25 03:03 6.07221 -73.80257 30836 ft 483 kts
2026-04-25 03:03 6.10582 -73.79967 30951 ft 488 kts
2026-04-25 03:04 6.17400 -73.79386 31142 ft 495 kts
2026-04-25 03:04 6.20847 -73.79091 31280 ft 499 kts
2026-04-25 03:04 6.24318 -73.78790 31404 ft 502 kts
2026-04-25 03:05 6.31330 -73.78184 31631 ft 509 kts
2026-04-25 03:05 6.34865 -73.77880 31828 ft 510 kts
2026-04-25 03:05 6.38408 -73.77574 32085 ft 511 kts
2026-04-25 03:05 6.41952 -73.77270 32331 ft 511 kts
2026-04-25 03:06 6.45499 -73.76966 32514 ft 512 kts
2026-04-25 03:06 6.49046 -73.76660 32758 ft 512 kts
2026-04-25 03:06 6.52598 -73.76352 33018 ft 512 kts
2026-04-25 03:06 6.56152 -73.76043 33275 ft 513 kts
2026-04-25 03:07 6.59710 -73.75736 33485 ft 514 kts
2026-04-25 03:07 6.63275 -73.75429 33728 ft 514 kts
2026-04-25 03:07 6.66841 -73.75121 33961 ft 516 kts
2026-04-25 03:07 6.70418 -73.74813 34009 ft 516 kts
2026-04-25 03:08 6.77509 -73.74206 33974 ft 515 kts
2026-04-25 03:08 6.84664 -73.73587 33949 ft 516 kts
2026-04-25 03:09 6.91814 -73.72964 33929 ft 516 kts
2026-04-25 03:09 6.98975 -73.72349 33919 ft 516 kts
2026-04-25 03:10 7.06137 -73.71733 33975 ft 516 kts
2026-04-25 03:10 7.13289 -73.71102 33977 ft 516 kts
2026-04-25 03:11 7.20449 -73.70476 33980 ft 516 kts
2026-04-25 03:11 7.27612 -73.69861 33978 ft 516 kts
2026-04-25 03:12 7.34770 -73.69248 33980 ft 516 kts
2026-04-25 03:12 7.41915 -73.68625 33983 ft 516 kts
2026-04-25 03:13 7.49063 -73.68005 33980 ft 515 kts
2026-04-25 03:13 7.56208 -73.67400 33970 ft 515 kts
2026-04-25 03:14 7.63349 -73.66783 33970 ft 515 kts
2026-04-25 03:14 7.70488 -73.66161 33972 ft 515 kts
2026-04-25 03:15 7.77639 -73.65534 33978 ft 516 kts
2026-04-25 03:15 7.84783 -73.64913 33981 ft 515 kts
2026-04-25 03:16 7.91927 -73.64296 34008 ft 515 kts
2026-04-25 03:16 7.99062 -73.63678 34008 ft 514 kts
2026-04-25 03:17 8.06196 -73.63060 34008 ft 514 kts
2026-04-25 03:17 8.13343 -73.62721 34006 ft 515 kts 355°
2026-04-25 03:18 8.16869 -73.63343 34009 ft 515 kts 344°
2026-04-25 03:18 8.20204 -73.64622 34004 ft 514 kts 332°
2026-04-25 03:18 8.23241 -73.66502 33983 ft 511 kts 321°
2026-04-25 03:18 8.25868 -73.68902 33977 ft 508 kts 310°
2026-04-25 03:19 8.30600 -73.74215 33972 ft 509 kts 310°
2026-04-25 03:19 8.35350 -73.79535 33967 ft 510 kts 310°
2026-04-25 03:20 8.40094 -73.84854 33974 ft 510 kts 309°
2026-04-25 03:20 8.44838 -73.90180 33981 ft 510 kts 309°
2026-04-25 03:21 8.49578 -73.95506 33977 ft 509 kts 309°
2026-04-25 03:21 8.54317 -74.00825 33982 ft 509 kts 309°
2026-04-25 03:22 8.59049 -74.06135 34000 ft 508 kts 309°
2026-04-25 03:22 8.63756 -74.11435 33983 ft 506 kts 309°
2026-04-25 03:23 8.68463 -74.16726 33987 ft 506 kts 309°
2026-04-25 03:23 8.73131 -74.21977 33980 ft 505 kts 309°
2026-04-25 03:24 8.77825 -74.27264 33974 ft 505 kts 309°
2026-04-25 03:24 8.82508 -74.32542 33973 ft 504 kts 309°
2026-04-25 03:25 8.87195 -74.37821 33970 ft 504 kts 309°
2026-04-25 03:25 8.91882 -74.43093 33974 ft 503 kts 309°
2026-04-25 03:26 8.95798 -74.47507 33981 ft 503 kts 309°
2026-04-25 03:26 9.00436 -74.52743 33972 ft 503 kts 309°
2026-04-25 03:27 9.05097 -74.58011 33975 ft 503 kts 309°
2026-04-25 03:27 9.09764 -74.63277 33974 ft 502 kts 309°
2026-04-25 03:28 9.14424 -74.68547 33974 ft 502 kts 309°
2026-04-25 03:28 9.19085 -74.73805 33975 ft 501 kts 309°
2026-04-25 03:29 9.23743 -74.79051 33974 ft 501 kts 309°
2026-04-25 03:29 9.28435 -74.84249 33967 ft 502 kts 315°
2026-04-25 03:30 9.34042 -74.88493 33968 ft 504 kts 322°
2026-04-25 03:30 9.39784 -74.92587 33965 ft 505 kts 322°
2026-04-25 03:31 9.45525 -74.96684 33963 ft 505 kts 322°
2026-04-25 03:31 9.51257 -75.00788 33962 ft 505 kts 322°
2026-04-25 03:32 9.56983 -75.04876 33939 ft 497 kts 322°
2026-04-25 03:32 9.59774 -75.06858 33634 ft 484 kts 323°
2026-04-25 03:32 9.62513 -75.08802 33097 ft 478 kts 323°
2026-04-25 03:33 9.65226 -75.10731 32387 ft 476 kts 323°
2026-04-25 03:33 9.67925 -75.12658 31616 ft 475 kts 323°
2026-04-25 03:33 9.70626 -75.14590 30825 ft 475 kts 323°
2026-04-25 03:33 9.73332 -75.16525 30013 ft 476 kts 323°
2026-04-25 03:34 9.76045 -75.18456 29042 ft 476 kts 323°
2026-04-25 03:34 9.78743 -75.20376 28322 ft 472 kts 323°
2026-04-25 03:34 9.81412 -75.22277 27663 ft 466 kts 323°
2026-04-25 03:34 9.84047 -75.24157 27006 ft 460 kts 323°
2026-04-25 03:35 9.86651 -75.26018 26369 ft 455 kts 323°
2026-04-25 03:35 9.89227 -75.27858 25773 ft 450 kts 323°
2026-04-25 03:35 9.91774 -75.29671 25189 ft 445 kts 323°
2026-04-25 03:35 9.94288 -75.31462 24597 ft 440 kts 323°
2026-04-25 03:36 9.96779 -75.33240 24023 ft 435 kts 323°
2026-04-25 03:36 9.99243 -75.35001 23437 ft 431 kts 323°
2026-04-25 03:36 10.01681 -75.36746 22779 ft 427 kts 323°
2026-04-25 03:36 10.04096 -75.38477 22127 ft 423 kts 323°
2026-04-25 03:37 10.06486 -75.40194 21508 ft 419 kts 323°
2026-04-25 03:37 10.08851 -75.41895 20907 ft 415 kts 323°
2026-04-25 03:37 10.11227 -75.43606 19814 ft 424 kts 323°
2026-04-25 03:37 10.13661 -75.45365 18646 ft 435 kts 323°
2026-04-25 03:38 10.16143 -75.47166 17623 ft 440 kts 323°
2026-04-25 03:38 10.18627 -75.48971 16801 ft 438 kts 323°
2026-04-25 03:38 10.21091 -75.50763 16066 ft 434 kts 323°
2026-04-25 03:38 10.23528 -75.52535 15357 ft 429 kts 323°
2026-04-25 03:39 10.25947 -75.54294 14668 ft 425 kts 323°
2026-04-25 03:39 10.28343 -75.56033 13998 ft 421 kts 323°
2026-04-25 03:39 10.30716 -75.57757 13281 ft 418 kts 323°
2026-04-25 03:39 10.33077 -75.59448 12557 ft 413 kts 326°
2026-04-25 03:40 10.35663 -75.60673 11854 ft 410 kts 342°
2026-04-25 03:40 10.38456 -75.61117 11154 ft 407 kts 359°
2026-04-25 03:40 10.41241 -75.60743 10466 ft 404 kts 15°
2026-04-25 03:40 10.43788 -75.59585 9767 ft 401 kts 32°
2026-04-25 03:41 10.45900 -75.57759 9010 ft 398 kts 48°
2026-04-25 03:41 10.47408 -75.55439 8331 ft 392 kts 64°
2026-04-25 03:41 10.48246 -75.52849 7341 ft 380 kts 81°
2026-04-25 03:41 10.48348 -75.50224 6407 ft 365 kts 96°
2026-04-25 03:42 10.47810 -75.47756 5463 ft 352 kts 110°
2026-04-25 03:42 10.46734 -75.45575 4591 ft 340 kts 124°
2026-04-25 03:42 10.45240 -75.43812 4137 ft 317 kts 138°
2026-04-25 03:42 10.43573 -75.42531 4044 ft 285 kts 149°
2026-04-25 03:43 10.41882 -75.41694 3989 ft 257 kts 161°
2026-04-25 03:43 10.40246 -75.41239 3918 ft 233 kts 171°
2026-04-25 03:43 10.38731 -75.41084 3856 ft 204 kts 180°
2026-04-25 03:43 10.37409 -75.41143 3834 ft 177 kts 187°
2026-04-25 03:44 10.36293 -75.41334 3782 ft 152 kts 194°
2026-04-25 03:44 10.35309 -75.41619 3736 ft 145 kts 199°
2026-04-25 03:44 10.34377 -75.41998 3697 ft 144 kts 205°
2026-04-25 03:44 10.33494 -75.42469 3671 ft 143 kts 211°
2026-04-25 03:45 10.32673 -75.43019 3507 ft 140 kts 216°
2026-04-25 03:45 10.31908 -75.43648 3167 ft 142 kts 222°
2026-04-25 03:45 10.31348 -75.44462 2887 ft 142 kts 245°
2026-04-25 03:45 10.31074 -75.45427 2629 ft 143 kts 258°
2026-04-25 03:46 10.31020 -75.46436 2305 ft 144 kts 275°
2026-04-25 03:46 10.31221 -75.47430 1990 ft 144 kts 287°
2026-04-25 03:46 10.31621 -75.48358 1674 ft 143 kts 301°
2026-04-25 03:46 10.32241 -75.49128 1623 ft 142 kts 317°
2026-04-25 03:47 10.32965 -75.49813 1613 ft 143 kts 305°
2026-04-25 03:47 10.33569 -75.50606 1590 ft 144 kts 325°
2026-04-25 03:47 10.34478 -75.51004 1621 ft 144 kts 339°
2026-04-25 03:47 10.35407 -75.51379 1611 ft 143 kts 338°
2026-04-25 03:48 10.36345 -75.51639 1351 ft 142 kts
2026-04-25 03:48 10.37308 -75.51474 1167 ft 141 kts
2026-04-25 03:48 10.38290 -75.51466 983 ft 142 kts 356°
2026-04-25 03:48 10.39268 -75.51494 759 ft 139 kts
2026-04-25 03:49 10.40226 -75.51454 606 ft 137 kts
2026-04-25 03:49 10.41176 -75.51418 449 ft 136 kts
2026-04-25 03:49 10.42120 -75.51375 220 ft 135 kts
2026-04-25 03:49 10.43053 -75.51342 107 ft 134 kts
2026-04-25 03:50 10.43943 -75.51306 51 ft 110 kts
2026-04-25 03:50 10.44440 -75.51290 51 ft 18 kts
2026-04-25 03:50 10.44542 -75.51323 51 ft 16 kts 289°
2026-04-25 03:50 10.44550 -75.51426 51 ft 15 kts 282°
2026-04-25 03:51 10.44530 -75.51497 51 ft 3 kts 248°
2026-04-25 03:51 10.44530 -75.51517 51 ft 3 kts 277°
2026-04-25 03:51 10.44531 -75.51533 51 ft 2 kts 271°
2026-04-25 03:51 10.44531 -75.51546 51 ft 2 kts 271°
2026-04-25 03:52 10.44531 -75.51555 51 ft 0 kts 270°